Location: Elstree
(51.6403°N, 0.2969°W)
Time: 20:28:46
(UTC+00:00)

Terra - Pass Details

Date: 23 June 2021
Orbit: 701 x 703 km, 98.2° (Epoch: 04 August)

Event Time Altitude Azimuth Distance (km) Brightness Sun altitude
Exits shadow 22:50:48 - 210° (SSW) 2,299 4.1 -13.3°
Reaches altitude 10° 22:51:12 10° 212° (SSW) 2,169 4.0 -13.3°
Maximum altitude 22:55:06 25° 268° (W) 1,416 3.5 -13.5°
Drops below altitude 10° 22:59:01 10° 323° (NW) 2,183 5.5 -13.6°
Sets 23:01:40 0° 337° (NNW) 3,107 7.0 -13.7°
